SL-8 DEB, 21181

Orbit data source: Space-Track

SL-8 DEB, 21181 is space debris in LEO originally from a launch on Tue, 12 Feb 1991 UTC launched from the Plesetsk Missile And Space Complex (PKMTR). Debris objects in space refer to the collection of defunct objects orbiting the Earth. Examples of debris include non-operational satellites, rocket bodies, and fragments generated from explosions, collisions, or faulty payload assembly.

Loading next visibility...
Identifier
21181, 1991-009AU
Orbit
LEO
Country
Flag of CISCIS
Related business
Manufacturer
Unknown
Mission
Spacecraft
Bus & Motor
Unknown
Mass
Unknown
Launch date (UTC)
1991-02-12 (35 years ago)
Launch vehicle
Unknown
Launch site
Plesetsk Missile And Space Complex (PKMTR)
Object type
Payload
Rocket body
Debris
Shape & HBR
Unknown shape, 0.1 m
Radar Cross Section
Small (<0.1 m²)

Expand to show TLE details & history
Last TLE update: 20 hours ago

TLE from 20 hours ago
0 SL-8 DEB
1 21181U 91009AU  26070.68395727 -.00000039  00000-0 -21817-3 0  9990
2 21181  73.9481 148.5371 0204154  96.6056  62.6329 12.22656496562200
Epoch: 2026-03-11T16:24Z
TLE epoch observation values (Epoch: 2026-03-11T16:24:53.908Z)
Latitude
17.90537°
Longitude
-92.34008°
Altitude
1,510.743 km
Speed
7.143 km/s
True Right ascension
21h 32m 55s
True Declination
17° 48' 53"
Sunlit
Object was in daylight at epoch
Visualization orbit readout
Latitude
Unknown
Longitude
Unknown
Altitude
Unknown
Speed
Unknown
Apparent Right ascension
Unknown
Apparent Declination
Unknown
Sunlit
N/A
Visualization observer readout
Local Sidereal Time
16:40:44
Azimuth
Unknown
Elevation
Unknown
Doppler factor
Unknown
Orbital elements
Apogee altitude
1,741.309 km
Perigee altitude
1,416.418 km
Semi-major axis
7,957.001 km
Eccentricity
0.02042
Inclination
73.9481°
RAAN
148.5371°
Arg. of periapsis
96.6056°
True anomaly
64.73468°
Mean anomaly
62.6329°
Eccentric anomaly
63.68137°
Mean motion
3.05787 °/min
Orbital period
117.73 mins
BSTAR
-0.00021817
Loading maneuver chart data...
Computing Atmospheric mass density...
Loading historical data...
Loading historical data...
Loading historical data...
Loading historical data...
Loading historical data...
Loading historical data...
Loading historical data...

Documentation

Showing up to 5 results
|